Atka, AK

6:26 AM HST on December 07, 2016 (GMT -1000)
Atka

Weather History for PAAK - February, 2013

Change the Weather History Date:

Monday, February 18, 2013

  Actual Average (PADK) Record (PADK)
Temperature  
Mean Temperature 37 °F -  
Max Temperature 39 °F 36 °F 47 °F (1956)
Min Temperature 35 °F 26 °F 16 °F (1971)
Degree Days  
Heating Degree Days 28    
Moisture  
Dew Point 30 °F    
Average Humidity 73    
Maximum Humidity 93    
Minimum Humidity 56    
Precipitation  
Precipitation 0.00 in - - ()
Sea Level Pressure  
Sea Level Pressure 29.29 in    
Wind  
Wind Speed 28 mph (SSW)    
Max Wind Speed 41 mph    
Max Gust Speed 60 mph    
Visibility 8 miles    
Events      
Averages and records for this station are not official NWS values.
T = Trace of Precipitation, MM = Missing Value Source: NWS Daily Summary

Daily Weather History Graph

Daily Weather History Graph

Search for Another Location

Airport or City:

Trip Planner

Search our weather history database for the weather conditions in past years. The results will help you decide how hot, cold, wet, or windy it might be!

Date:

Astronomy

Feb. 18, 2013 Rise Set
Actual Time 8:45 AM HST 6:57 PM HST
Civil Twilight 8:10 AM HST 7:31 PM HST
Nautical Twilight 7:30 AM HST 8:11 PM HST
Astronomical Twilight 6:51 AM HST 8:50 PM HST
Moon 12:30 PM HST (2/18) 3:59 AM HST (2/18)
Length of Visible Light 11h 21m
Length of Day
10h 11m
First Quarter, 60% of the Moon is Illuminated
Feb 18
First Quarter
Feb 25
Full
Mar 4
Last Quarter
Mar 11
New
Mar 19
First Quarter

Hourly Weather History & Observations

Time (HST) Temp. Windchill Dew Point Humidity Pressure Visibility Wind Dir Wind Speed Gust Speed Precip Events Conditions
12:16 AM 39.2 °F 26.5 °F 37.4 °F 93% 29.07 in 5.0 mi South 35.7 mph 50.6 mph N/A   Overcast
12:36 AM 39.2 °F 26.8 °F 37.4 °F 93% 29.07 in 5.0 mi South 33.4 mph 46.0 mph N/A   Overcast
12:56 AM 39.2 °F 26.5 °F 35.6 °F 87% 29.10 in 7.0 mi South 35.7 mph 59.8 mph N/A   Overcast
1:16 AM 39.2 °F 26.3 °F 35.6 °F 87% 29.10 in 7.0 mi South 36.8 mph 48.3 mph N/A   Overcast
1:36 AM 39.2 °F 25.7 °F 35.6 °F 87% 29.11 in 5.0 mi South 41.4 mph 56.4 mph N/A   Overcast
1:56 AM 39.2 °F 26.0 °F 35.6 °F 87% 29.12 in 3.0 mi South 39.1 mph 51.8 mph N/A   Overcast
2:16 AM 39.2 °F 26.3 °F 35.6 °F 87% 29.11 in 3.0 mi South 36.8 mph 47.2 mph N/A   Overcast
2:36 AM 39.2 °F 26.0 °F 35.6 °F 87% 29.10 in 3.0 mi South 39.1 mph 47.2 mph N/A   Overcast
2:56 AM 39.2 °F 26.0 °F 35.6 °F 87% 29.11 in 4.0 mi South 39.1 mph 51.8 mph N/A   Overcast
3:16 AM 39.2 °F 26.5 °F 35.6 °F 87% 29.12 in 5.0 mi South 35.7 mph 47.2 mph N/A   Overcast
3:36 AM 39.2 °F 26.6 °F 35.6 °F 87% 29.14 in 5.0 mi South 34.5 mph 46.0 mph N/A   Overcast
3:56 AM 39.2 °F 26.0 °F 35.6 °F 87% 29.16 in 5.0 mi South 39.1 mph 46.0 mph N/A   Overcast
4:16 AM 39.2 °F 28.3 °F 35.6 °F 87% 29.16 in 4.0 mi South 25.3 mph 36.8 mph N/A   Overcast
4:36 AM 39.2 °F 26.8 °F 35.6 °F 87% 29.18 in 4.0 mi South 33.4 mph 40.3 mph N/A   Overcast
4:56 AM 39.2 °F 26.8 °F 35.6 °F 87% 29.17 in 4.0 mi South 33.4 mph 48.3 mph N/A   Overcast
5:16 AM 39.2 °F 27.0 °F 35.6 °F 87% 29.17 in 3.0 mi South 32.2 mph 40.3 mph N/A   Overcast
5:36 AM 39.2 °F 28.5 °F 35.6 °F 87% 29.17 in 3.0 mi South 24.2 mph 35.7 mph N/A   Overcast
5:56 AM 39.2 °F 28.5 °F 35.6 °F 87% 29.16 in 4.0 mi South 24.2 mph 32.2 mph N/A   Overcast
6:16 AM 39.2 °F 28.0 °F 35.6 °F 87% 29.16 in 6.0 mi SSW 26.5 mph 38.0 mph N/A   Overcast
6:36 AM 39.2 °F 28.5 °F 33.8 °F 81% 29.17 in 5.0 mi SSW 24.2 mph 40.3 mph N/A   Overcast
6:56 AM 37.4 °F 27.5 °F 33.8 °F 87% 29.18 in 3.0 mi SSW 18.4 mph 36.8 mph N/A   Overcast
7:16 AM 37.4 °F 26.4 °F 33.8 °F 87% 29.19 in 10.0 mi South 23.0 mph 34.5 mph N/A   Overcast
7:36 AM 37.4 °F 25.6 °F 32.0 °F 81% 29.20 in 9.0 mi SSW 26.5 mph 41.4 mph N/A   Overcast
7:56 AM 37.4 °F 24.8 °F 32.0 °F 81% 29.21 in 9.0 mi SSW 31.1 mph 42.6 mph N/A   Overcast
8:16 AM 37.4 °F 24.8 °F 32.0 °F 81% 29.22 in 9.0 mi SSW 31.1 mph 47.2 mph N/A   Overcast
8:36 AM 37.4 °F 24.8 °F 30.2 °F 75% 29.23 in 10.0 mi SSW 31.1 mph 46.0 mph N/A   Overcast
8:56 AM 37.4 °F 25.6 °F 28.4 °F 70% 29.24 in 10.0 mi SSW 26.5 mph 47.2 mph N/A   Overcast
9:16 AM 37.4 °F 24.2 °F 26.6 °F 65% 29.26 in 10.0 mi SSW 34.5 mph 44.9 mph N/A   Mostly Cloudy
9:36 AM 37.4 °F 24.4 °F 26.6 °F 65% 29.27 in 10.0 mi SW 33.4 mph 44.9 mph N/A   Overcast
9:56 AM 37.4 °F 26.4 °F 26.6 °F 65% 29.29 in 7.0 mi SW 23.0 mph 34.5 mph N/A   Overcast
10:16 AM 37.4 °F 26.9 °F 24.8 °F 60% 29.30 in 9.0 mi SW 20.7 mph 34.5 mph N/A   Overcast
10:36 AM 37.4 °F 27.5 °F 26.6 °F 65% 29.32 in 8.0 mi SW 18.4 mph 32.2 mph N/A   Overcast
10:56 AM 37.4 °F 26.1 °F 26.6 °F 65% 29.33 in 8.0 mi SSW 24.2 mph 36.8 mph N/A   Overcast
11:16 AM 37.4 °F 25.9 °F 24.8 °F 60% 29.34 in 9.0 mi SSW 25.3 mph 34.5 mph N/A   Overcast
11:36 AM 39.2 °F 29.8 °F 26.6 °F 61% 29.34 in 8.0 mi SW 18.4 mph 31.1 mph N/A   Overcast
11:56 AM 39.2 °F 27.8 °F 24.8 °F 56% 29.36 in 10.0 mi SSW 27.6 mph 32.2 mph N/A   Mostly Cloudy
12:16 PM 39.2 °F 30.5 °F 24.8 °F 56% 29.37 in 10.0 mi SSW 16.1 mph 28.8 mph N/A   Mostly Cloudy
12:36 PM 39.2 °F 28.7 °F 26.6 °F 61% 29.38 in 9.0 mi SSW 23.0 mph 32.2 mph N/A   Overcast
12:56 PM 39.2 °F 28.7 °F 26.6 °F 61% 29.38 in 10.0 mi SSW 23.0 mph 33.4 mph N/A   Overcast
1:16 PM 39.2 °F 29.3 °F 26.6 °F 61% 29.38 in 10.0 mi SSW 20.7 mph 28.8 mph N/A   Overcast
1:36 PM 39.2 °F 31.2 °F 26.6 °F 61% 29.38 in 10.0 mi SSW 13.8 mph 28.8 mph N/A   Mostly Cloudy
1:56 PM 39.2 °F 28.7 °F 26.6 °F 61% 29.38 in 10.0 mi SSW 23.0 mph 29.9 mph N/A   Mostly Cloudy
2:16 PM 39.2 °F 30.2 °F 28.4 °F 65% 29.38 in 10.0 mi SSW 17.3 mph 27.6 mph N/A   Mostly Cloudy
2:36 PM 39.2 °F 30.2 °F 26.6 °F 61% 29.37 in 9.0 mi SSW 17.3 mph 27.6 mph N/A   Overcast
2:56 PM 39.2 °F 30.5 °F 26.6 °F 61% 29.37 in 10.0 mi SSW 16.1 mph 32.2 mph N/A   Mostly Cloudy
3:16 PM 37.4 °F 27.5 °F 28.4 °F 70% 29.37 in 9.0 mi South 18.4 mph 28.8 mph N/A   Mostly Cloudy
3:36 PM 37.4 °F 25.9 °F 28.4 °F 70% 29.38 in 9.0 mi South 25.3 mph 29.9 mph N/A   Overcast
3:56 PM 39.2 °F 29.0 °F 28.4 °F 65% 29.38 in 9.0 mi SW 21.9 mph 31.1 mph N/A   Mostly Cloudy
4:16 PM 37.4 °F 28.5 °F 26.6 °F 65% 29.37 in 10.0 mi SW 15.0 mph 24.2 mph N/A   Mostly Cloudy
4:36 PM 39.2 °F 30.5 °F 28.4 °F 65% 29.37 in 9.0 mi SW 16.1 mph 21.9 mph N/A   Overcast
4:56 PM 37.4 °F 27.2 °F 28.4 °F 70% 29.37 in 9.0 mi SW 19.6 mph 27.6 mph N/A   Overcast
5:16 PM 37.4 °F 28.5 °F 26.6 °F 65% 29.38 in 10.0 mi SSW 15.0 mph - N/A   Overcast
5:36 PM 37.4 °F 28.9 °F 26.6 °F 65% 29.38 in 10.0 mi SSW 13.8 mph 25.3 mph N/A   Overcast
5:56 PM 37.4 °F 28.2 °F 28.4 °F 70% 29.38 in 10.0 mi South 16.1 mph 19.6 mph N/A   Overcast
6:16 PM 37.4 °F 27.2 °F 28.4 °F 70% 29.38 in 10.0 mi South 19.6 mph 26.5 mph N/A   Mostly Cloudy
6:36 PM 37.4 °F 26.9 °F 28.4 °F 70% 29.39 in 10.0 mi South 20.7 mph 26.5 mph N/A   Scattered Clouds
6:56 PM 37.4 °F 27.2 °F 28.4 °F 70% 29.38 in 10.0 mi SSW 19.6 mph 28.8 mph N/A   Scattered Clouds
7:16 PM 37.4 °F 28.2 °F 28.4 °F 70% 29.39 in 10.0 mi SW 16.1 mph 31.1 mph N/A   Mostly Cloudy
7:36 PM 35.6 °F 27.1 °F 26.6 °F 70% 29.39 in 10.0 mi SW 12.7 mph - N/A   Partly Cloudy
7:56 PM 35.6 °F 26.6 °F 26.6 °F 70% 29.39 in 10.0 mi SW 13.8 mph - N/A   Partly Cloudy
8:16 PM 35.6 °F 28.6 °F 26.6 °F 70% 29.39 in 10.0 mi WSW 9.2 mph - N/A   Partly Cloudy
8:36 PM 35.6 °F 27.5 °F 26.6 °F 70% 29.39 in 10.0 mi SW 11.5 mph - N/A   Mostly Cloudy
8:56 PM 35.6 °F 29.9 °F 26.6 °F 70% 29.39 in 10.0 mi SW 6.9 mph - N/A   Mostly Cloudy
9:16 PM 35.6 °F 28.0 °F 26.6 °F 70% 29.39 in 10.0 mi SW 10.4 mph - N/A   Mostly Cloudy
9:36 PM 35.6 °F 27.1 °F 26.6 °F 70% 29.39 in 10.0 mi SSW 12.7 mph - N/A   Mostly Cloudy
9:56 PM 35.6 °F 27.1 °F 26.6 °F 70% 29.39 in 10.0 mi SSW 12.7 mph - N/A   Scattered Clouds
10:16 PM 35.6 °F 26.6 °F 26.6 °F 70% 29.39 in 10.0 mi SSW 13.8 mph - N/A   Clear
10:36 PM 35.6 °F 27.5 °F 26.6 °F 70% 29.40 in 10.0 mi SW 11.5 mph - N/A   Partly Cloudy
10:56 PM 35.6 °F 29.2 °F 26.6 °F 70% 29.40 in 10.0 mi SW 8.1 mph - N/A   Mostly Cloudy
11:16 PM 35.6 °F 28.0 °F 28.4 °F 75% 29.41 in 9.0 mi SW 10.4 mph - N/A   Mostly Cloudy
11:36 PM 35.6 °F 27.5 °F 26.6 °F 70% 29.41 in 10.0 mi WSW 11.5 mph - N/A   Partly Cloudy
11:56 PM 35.6 °F 29.2 °F 24.8 °F 65% 29.41 in 10.0 mi WSW 8.1 mph - N/A   Mostly Cloudy